Estherville, IA

4:29 AM CST on November 22, 2019 (GMT -0600)
Estherville Municipal

Weather History for KEST - October, 2019

Change the Weather History Date:

Sunday, October 20, 2019

  Actual Average Record
Temperature  
Mean Temperature 46 °F 46 °F  
Max Temperature 60 °F 58 °F 82 °F (1953)
Min Temperature 32 °F 35 °F 15 °F (1960)
Degree Days  
Heating Degree Days 19 19  
Month to date heating degree days 358 302  
Since 1 July heating degree days 485 510  
Cooling Degree Days 0 0  
Month to date cooling degree days 0 4  
Year to date cooling degree days 529 591  
Moisture  
Dew Point 38 °F    
Average Humidity 74    
Maximum Humidity 96    
Minimum Humidity 51    
Precipitation  
Precipitation 0.04 in 0.06 in 2.86 in (2006)
Month to date precipitation 3.21 1.66  
Sea Level Pressure  
Sea Level Pressure 29.77 in    
Wind  
Wind Speed 11 mph (SE)    
Max Wind Speed 29 mph    
Max Gust Speed 41 mph    
Visibility 10 miles    
Events Rain    
T = Trace of Precipitation, MM = Missing Value Source: NWS Daily Summary

Daily Weather History Graph

Daily Weather History Graph

Search for Another Location

Airport or City:

Astronomy

Oct. 20, 2019 Rise Set
Actual Time 7:38 AM CDT 6:28 PM CDT
Civil Twilight 7:09 AM CDT 6:57 PM CDT
Nautical Twilight 6:36 AM CDT 7:30 PM CDT
Astronomical Twilight 6:03 AM CDT 8:03 PM CDT
Moon 11:30 PM CDT (10/20) 2:14 PM CDT (10/20)
Length of Visible Light 11h 47m
Length of Day
10h 49m
Waning Gibbous, 59% of the Moon is Illuminated
Oct 20
Waning Gibbous
Oct 21
Last Quarter
Oct 27
New
Nov 4
First Quarter
Nov 12
Full

Hourly Weather History & Observations

Time (CDT) Temp. Windchill Dew Point Humidity Pressure Visibility Wind Dir Wind Speed Gust Speed Precip Events Conditions
12:52 AM 39.0 °F 35.7 °F 34.0 °F 82% 29.78 in 10.0 mi SSW 4.6 mph - N/A   Clear
1:52 AM 39.0 °F 35.7 °F 34.0 °F 82% 29.78 in 10.0 mi South 4.6 mph - N/A   Clear
2:52 AM 35.1 °F - 33.1 °F 92% 29.80 in 10.0 mi Calm Calm - N/A   Partly Cloudy
3:52 AM 35.1 °F - 32.0 °F 89% 29.78 in 10.0 mi Calm Calm - N/A   Clear
4:52 AM 34.0 °F - 32.0 °F 92% 29.80 in 10.0 mi Calm Calm - N/A   Clear
5:52 AM 34.0 °F - 30.9 °F 89% 29.81 in 10.0 mi Calm Calm - N/A   Clear
6:52 AM 33.1 °F 28.7 °F 30.9 °F 92% 29.82 in 10.0 mi SE 4.6 mph - N/A   Clear
7:52 AM 35.1 °F 31.0 °F 32.0 °F 89% 29.83 in 10.0 mi South 4.6 mph - N/A   Clear
8:52 AM 39.9 °F 36.7 °F 37.0 °F 89% 29.83 in 10.0 mi ESE 4.6 mph - N/A   Clear
9:52 AM 50.0 °F - 41.0 °F 71% 29.83 in 10.0 mi SE 5.8 mph - N/A   Clear
10:52 AM 55.9 °F - 44.1 °F 64% 29.83 in 10.0 mi SSE 11.5 mph - N/A   Clear
11:52 AM 57.9 °F - 42.1 °F 56% 29.83 in 10.0 mi SSE 13.8 mph - N/A   Clear
12:52 PM 57.9 °F - 42.1 °F 56% 29.82 in 10.0 mi SSE 13.8 mph - N/A   Clear
1:52 PM 59.0 °F - 43.0 °F 55% 29.78 in 10.0 mi SE 18.4 mph 24.2 mph N/A   Partly Cloudy
2:52 PM 59.0 °F - 42.1 °F 53% 29.79 in 10.0 mi SSE 12.7 mph - N/A   Clear
3:52 PM 59.0 °F - 41.0 °F 51% 29.79 in 10.0 mi SSE 13.8 mph 21.9 mph N/A   Clear
4:52 PM 57.9 °F - 39.0 °F 49% 29.76 in 10.0 mi SE 18.4 mph 26.5 mph N/A   Clear
5:52 PM 57.0 °F - 41.0 °F 55% 29.75 in 10.0 mi SE 16.1 mph - N/A   Clear
6:52 PM 55.0 °F - 41.0 °F 59% 29.74 in 10.0 mi ESE 12.7 mph - N/A   Overcast
7:52 PM 55.9 °F - 39.9 °F 55% 29.72 in 10.0 mi ESE 23.0 mph 31.1 mph N/A   Overcast
8:52 PM 55.9 °F - 39.0 °F 53% 29.69 in 10.0 mi ESE 21.9 mph 36.8 mph N/A   Mostly Cloudy
9:52 PM 53.1 °F - 39.9 °F 61% 29.67 in 10.0 mi ESE 20.7 mph 29.9 mph N/A   Overcast
10:52 PM 53.1 °F - 41.0 °F 64% 29.67 in 10.0 mi ESE 19.6 mph 26.5 mph N/A   Overcast
11:52 PM 48.9 °F - 46.0 °F 90% 29.65 in 7.0 mi ESE 12.7 mph - 0.03 in Rain Light Rain